Погода в Аксае

Россия / Ростовская область     47°16′11″N   39°51′45″E
темп.,
°C
ветер,
м/с
пор.,
м/с
влажн.,
%
обл.,
%
осадки,
мм/ч
давл.,
гПа
погр.,
м
27 октября, ср
ср2700:00+4вюв24375 0.0 1033167
03:00+3вюв24465 0.0 1032167
06:00+2вюв35545 0.0 1031188
09:00+4в36485 0.0 1031305
12:00+8вюв35305 0.0 1029642
15:00+11вюв34240 0.0 1026824
18:00+9в24320 0.0 1026116
21:00+7вюв25420 0.0 1025140
28 октября, чт
чт2800:00+6в22480 0.0 102568
03:00+5св23510 0.0 102588
06:00+4всв22550 0.0 102484
09:00+6в11480 0.0 1025170
12:00+10зюз1134100 0.0 1024493
15:00+11зсз3325100 0.0 1023863
18:00+9зюз2433100 0.0 1023171
21:00+9зюз2546100 0.0 1023185
29 октября, пт
пт2900:00+8зюз245993 0.0 1023134
03:00+9зюз266782 0.0 1023210
06:00+9зюз2573100 0.0 1024180
09:00+9с126599 0.0 1025115
12:00+10св2373100 0.0 1026346
15:00+12всв136720 0.0 1026405
18:00+10вюв11736 0.0 102713
21:00+9всв387925 0.0 1029232
30 октября, сб
сб3000:00+9всв388142 0.0 1030360
03:00+9всв398383 0.0 1030438
06:00+8всв49825 0.0 1031454
09:00+8в59765 0.0 1032446
12:00+13в57475 0.0 1032945
15:00+15в57350 0.0 10311236
18:00+12всв49440 0.0 1031458
21:00+10всв410600 0.0 1031411
31 октября, вс
вс3100:00+9всв410710 0.0 1031339
03:00+8всв411774 0.0 1030367
06:00+7всв512760 0.0 1030415
09:00+8всв512730 0.0 1030405
12:00+14в695199 0.0 10281031
15:00+16в6104922 0.0 10261304
18:00+13в411475 0.0 1026703
21:00+12в61344100 0.0 1026698